Weather observations for the past three days for
La Veta Mountain, La Veta Pass
Imperial (Metric)
Date Time (mdt) Wind (mph) Vis. (mi.) Weather Sky Cond. Temperature (ºF) Relative Humidity Wind Chill (°F) Heat Index (°F) Pressure Precipitation (in)
Air Dwpt 6 hour altimeter (in) sea level (mb) 1 hr 3 hr 6 hr
Max. Min.
14 01:55 E 7 10.00 Fair CLR 50 37.4 62% 48 30.61 0.0
14 01:35 E 8 10.00 Fair CLR 50 37.4 62% 47 30.6 0.0
14 01:15 E 9 G 17 10.00 Fair CLR 50 37.4 62% 47 30.6 0.0
14 00:55 E 6 10.00 Fair CLR 51.8 37.4 58% 30.6 0.0
14 00:35 E 7 10.00 Fair CLR 51.8 37.4 58% 30.61 0.0
14 00:15 E 7 10.00 Fair CLR 53.6 37.4 54% 30.62 0.0
13 23:55 E 9 10.00 Fair CLR 53.6 35.6 51% 30.63 0.0
13 23:35 E 7 10.00 Fair CLR 53.6 35.6 51% 30.63 0.0
13 23:15 E 7 10.00 Fair CLR 55.4 35.6 47% 30.64 0.0
13 22:55 E 6 10.00 Fair CLR 55.4 35.6 47% 30.64 0.0
13 22:35 E 6 10.00 Fair CLR 55.4 35.6 47% 30.64 0.0
13 22:15 E 10 G 17 10.00 Fair CLR 57.2 35.6 44% 30.64 0.0
13 21:55 E 9 G 18 10.00 Fair CLR 59 33.8 39% 30.63 0.0
13 21:35 SE 5 10.00 Fair CLR 66.2 21.2 18% 30.62 0.0
13 21:15 NE 6 10.00 Fair CLR 66.2 21.2 18% 30.61 0.0
13 20:55 N 8 10.00 Fair CLR 66.2 21.2 18% 30.61 0.0
13 20:35 N 8 10.00 Fair CLR 66.2 21.2 18% 30.61 0.0
13 20:15 N 3 10.00 Fair CLR 68 23 18% 30.61 0.0
13 19:55 Calm 10.00 Fair CLR 68 23 18% 30.61 0.0
13 19:35 Calm 10.00 Fair CLR 69.8 23 17% 30.61 0.0
13 19:15 W 6 10.00 Fair CLR 71.6 17.6 13% 30.61 0.0
13 18:55 W 5 10.00 Fair CLR 71.6 19.4 14% 30.6 0.0
13 18:35 W 5 10.00 Fair CLR 73.4 19.4 13% 30.6 0.0
13 18:15 W 8 10.00 Fair CLR 73.4 19.4 13% 30.6 0.0
13 17:55 W 8 10.00 Fair CLR 73.4 17.6 12% 30.6 0.0
13 17:35 NW 8 10.00 Fair CLR 73.4 19.4 13% 30.61 0.0
13 17:15 W 6 10.00 Fair CLR 73.4 19.4 13% 30.61 0.0
13 16:55 Calm 10.00 Fair CLR 73.4 19.4 13% 30.61 0.0
13 16:35 W 7 10.00 Fair CLR 73.4 17.6 12% 30.62 0.0
13 16:15 W 7 10.00 Fair CLR 73.4 19.4 13% 30.63 0.0
13 15:55 NW 6 10.00 Fair CLR 73.4 17.6 12% 30.63 0.0
13 15:35 SW 6 10.00 Fair CLR 71.6 21.2 15% 30.64 0.0
13 15:15 W 6 10.00 Fair CLR 73.4 21.2 14% 30.65 0.0
13 14:55 W 3 10.00 Fair CLR 73.4 21.2 14% 30.66 0.0
13 14:35 SW 12 G 17 10.00 Fair CLR 73.4 23 15% 30.66 0.0
13 14:15 W 6 10.00 Fair CLR 73.4 24.8 16% 30.66 0.0
13 13:55 W 8 10.00 Fair CLR 71.6 21.2 15% 30.67 0.0
13 13:35 W 8 10.00 Fair CLR 71.6 21.2 15% 30.67 0.0
13 13:15 W 6 10.00 Fair CLR 71.6 23 16% 30.68 0.0
13 12:55 W 9 10.00 Fair CLR 71.6 23 16% 30.68 0.0
13 12:35 W 12 G 20 10.00 Fair CLR 71.6 21.2 15% 30.68 0.0
13 12:15 W 9 10.00 Fair CLR 69.8 19.4 15% 30.68 0.0
13 11:55 W 10 G 17 10.00 Fair CLR 69.8 23 17% 30.68 0.0
13 11:35 W 9 10.00 Fair CLR 69.8 26.6 20% 30.68 0.0
13 11:15 W 7 10.00 Fair CLR 69.8 28.4 21% 30.68 0.0
13 10:55 W 7 10.00 Fair CLR 68 30.2 24% 30.68 0.0
13 10:35 W 6 10.00 Fair CLR 68 26.6 21% 30.68 0.0
13 10:15 W 8 10.00 Fair CLR 68 26.6 21% 30.68 0.0
13 09:55 W 3 10.00 Fair CLR 66.2 26.6 22% 30.68 0.0
13 09:35 W 3 10.00 Fair CLR 64.4 26.6 24% 30.68 0.0
13 09:15 Calm 10.00 Fair CLR 62.6 30.2 30% 30.67 0.0
13 08:55 W 3 10.00 Fair CLR 62.6 28.4 27% 30.66 0.0
13 08:35 Calm 10.00 Fair CLR 60.8 30.2 31% 30.66 0.0
13 08:15 W 6 10.00 Fair CLR 60.8 28.4 29% 30.65 0.0
13 07:55 W 6 10.00 Fair CLR 59 28.4 31% 30.64 0.0
13 07:35 W 9 10.00 Fair CLR 57.2 30.2 36% 30.64 0.0
13 07:15 W 12 10.00 Fair CLR 55.4 28.4 36% 30.63 0.0
13 06:55 W 13 10.00 Fair CLR 55.4 28.4 36% 30.63 0.0
13 06:35 W 10 10.00 Fair CLR 55.4 28.4 36% 30.63 0.0
13 06:15 W 8 10.00 Fair CLR 55.4 28.4 36% 30.62 0.0
13 05:55 W 8 10.00 Fair CLR 57.2 28.4 33% 30.61 0.0
13 05:35 W 8 10.00 Fair CLR 55.4 28.4 36% 30.61 0.0
13 05:15 W 9 10.00 Fair CLR 55.4 28.4 36% 30.61 0.0
13 04:55 W 8 10.00 Fair CLR 57.2 28.4 33% 30.61 0.0
13 04:35 W 7 10.00 Fair CLR 59 26.6 29% 30.6 0.0
13 04:15 W 7 10.00 Fair CLR 59 28.4 31% 30.59 0.0
13 03:55 W 8 10.00 Fair CLR 55.4 30.2 38% 30.6 0.0
13 03:35 W 9 10.00 Fair CLR 57.2 28.4 33% 30.6 0.0
13 03:15 W 8 10.00 Fair CLR 57.2 28.4 33% 30.6 0.0
13 02:55 W 8 10.00 Fair CLR 59 28.4 31% 30.6 0.0
13 02:35 W 8 10.00 Fair CLR 59 28.4 31% 30.6 0.0
13 02:15 W 8 10.00 Fair CLR 59 28.4 31% 30.6 0.0
13 01:55 W 7 10.00 Fair CLR 60.8 28.4 29% 30.6 0.0
13 01:35 W 8 10.00 Fair CLR 60.8 28.4 29% 30.6 0.0
13 01:15 W 7 10.00 Fair CLR 60.8 26.6 27% 30.6 0.0
13 00:55 W 7 10.00 Partly Cloudy SCT110 60.8 26.6 27% 30.6 0.0
13 00:35 W 6 10.00 Mostly Cloudy SCT075 SCT085 BKN110 62.6 26.6 25% 30.61 0.0
13 00:15 W 7 G 21 10.00 Mostly Cloudy SCT075 SCT095 BKN110 62.6 26.6 25% 30.62 0.0
13 00:00 W 8 10.00 Overcast SCT070 OVC095 60.8 28.4 29% 30.62 0.0
12 23:35 W 8 10.00 Partly Cloudy SCT095 SCT110 59 30.2 34% 30.62 0.0
12 23:15 W 9 10.00 Fair CLR 59 30.2 34% 30.62 0.0
12 22:55 W 9 10.00 Partly Cloudy SCT100 SCT110 60.8 30.2 31% 30.63 0.0
12 22:35 W 7 10.00 Mostly Cloudy SCT100 BKN120 60.8 28.4 29% 30.63 0.0
12 22:15 W 7 10.00 Mostly Cloudy BKN110 62.6 28.4 27% 30.62 0.0
12 21:55 W 6 10.00 Mostly Cloudy BKN110 62.6 28.4 27% 30.61 0.0
12 21:35 W 8 10.00 Mostly Cloudy BKN100 BKN120 62.6 26.6 25% 30.61 0.0
12 21:15 N 6 G 29 10.00 Partly Cloudy SCT120 64.4 26.6 24% 30.61 0.0
12 20:55 W 12 G 22 10.00 Partly Cloudy SCT110 62.6 28.4 27% 30.6 0.0
12 20:35 W 8 10.00 Partly Cloudy SCT120 62.6 28.4 27% 30.59 0.0
12 20:15 W 9 10.00 Fair CLR 62.6 30.2 30% 30.59 0.0
12 19:55 W 6 10.00 Fair CLR 62.6 30.2 30% 30.59 0.0
12 19:35 W 7 10.00 Fair CLR 62.6 30.2 30% 30.59 0.0
12 19:15 W 8 10.00 Fair CLR 64.4 30.2 28% 30.59 0.0
12 18:55 W 9 10.00 Fair CLR 64.4 30.2 28% 30.59 0.0
12 18:35 W 10 G 18 10.00 Partly Cloudy SCT100 66.2 30.2 26% 30.6 0.0
12 18:15 W 12 G 22 10.00 Mostly Cloudy BKN100 68 32 26% 30.59 0.0
12 17:55 W 10 G 18 10.00 Partly Cloudy SCT090 69.8 32 25% 30.59 0.0
12 17:35 W 12 G 16 10.00 Partly Cloudy SCT110 71.6 30.2 22% 30.59 0.0
12 17:15 W 9 10.00 Partly Cloudy SCT100 71.6 30.2 22% 30.59 0.0
12 16:55 W 8 10.00 Partly Cloudy SCT100 SCT120 69.8 30.2 23% 30.59 0.0
12 16:35 Calm 10.00 Mostly Cloudy BKN100 BKN120 69.8 30.2 23% 30.6 0.0
12 16:15 NW 5 10.00 Partly Cloudy SCT100 SCT120 66.2 28.4 24% 30.6 0.0
12 15:55 W 7 10.00 Partly Cloudy SCT100 SCT120 69.8 28.4 21% 30.61 0.0
12 15:35 W 7 10.00 Mostly Cloudy BKN110 68 30.2 24% 30.61 0.0
12 15:15 W 5 10.00 Overcast BKN100 OVC120 68 28.4 23% 30.61 0.0
12 14:55 Calm 10.00 Mostly Cloudy BKN110 68 30.2 24% 30.62 0.0
12 14:35 W 3 10.00 Mostly Cloudy BKN110 66.2 28.4 24% 30.62 0.0
12 14:15 Calm 10.00 Mostly Cloudy BKN100 64.4 28.4 26% 30.63 0.0
12 13:55 W 5 10.00 Mostly Cloudy BKN100 66.2 28.4 24% 30.63 0.0
12 13:35 NW 5 10.00 Mostly Cloudy BKN090 BKN110 69.8 32 25% 30.63 0.0
12 13:15 W 5 10.00 Mostly Cloudy SCT090 BKN110 68 32 26% 30.64 0.0
12 12:55 W 9 10.00 Mostly Cloudy SCT090 BKN110 68 33.8 28% 30.64 0.0
12 12:35 W 6 10.00 Mostly Cloudy BKN110 62.6 33.8 34% 30.64 0.0
12 12:15 W 15 10.00 Partly Cloudy SCT120 66.2 33.8 30% 30.64 0.0
12 11:55 W 6 10.00 Fair CLR 66.2 33.8 30% 30.64 0.0
12 11:35 W 5 10.00 Fair CLR 66.2 33.8 30% 30.64 0.0
12 10:55 W 5 10.00 Fair CLR 64.4 33.8 32% 30.64 0.0
12 10:35 W 6 10.00 Fair CLR 62.6 37.4 39% 30.64 0.0
12 10:15 W 8 10.00 Fair CLR 60.8 35.6 39% 30.63 0.0
12 09:55 W 9 10.00 Partly Cloudy SCT100 57.2 37.4 48% 30.63 0.0
12 09:35 W 10 10.00 Partly Cloudy SCT100 55.4 37.4 51% 30.63 0.0
12 09:15 W 9 G 16 10.00 Fair CLR 55.4 37.4 51% 30.62 0.0
12 08:35 W 12 10.00 Fair CLR 53.6 37.4 54% 30.61 0.0
12 08:15 W 12 10.00 Fair CLR 51.8 37.4 58% 30.61 0.0
12 07:55 W 13 10.00 Fair CLR 51.8 37.4 58% 30.6 0.0
12 07:35 W 10 10.00 Fair CLR 50 37.4 62% 46 30.59 0.0
12 07:15 W 13 10.00 Fair CLR 50 35.6 58% 46 30.59 0.0
12 06:55 W 14 10.00 Fair CLR 50 35.6 58% 45 30.58 0.0
12 06:35 W 14 10.00 Fair CLR 50 35.6 58% 45 30.58 0.0
12 06:15 W 14 G 18 10.00 Fair CLR 50 35.6 58% 45 30.57 0.0
12 05:55 W 13 10.00 Fair CLR 48.2 35.6 62% 43 30.57 0.0
12 05:35 W 13 G 18 10.00 Fair CLR 48.2 35.6 62% 43 30.56 0.0
12 05:15 W 13 10.00 Fair CLR 48.2 35.6 62% 43 30.56 0.0
12 04:55 W 13 10.00 Fair CLR 48.2 35.6 62% 43 30.56 0.0
12 04:35 W 13 10.00 Fair CLR 48.2 35.6 62% 43 30.56 0.0
12 04:15 W 12 10.00 Fair CLR 50 35.6 58% 46 30.56 0.0
12 03:55 W 10 G 18 10.00 Fair CLR 51.8 35.6 54% 30.56 0.0
12 03:35 W 10 10.00 Fair CLR 51.8 35.6 54% 30.56 0.0
12 03:15 W 13 G 16 10.00 Fair CLR 51.8 35.6 54% 30.56 0.0
12 02:55 W 12 10.00 Fair CLR 51.8 33.8 50% 30.56 0.0
12 02:35 W 12 10.00 Fair CLR 51.8 33.8 50% 30.56 0.0
12 02:15 W 10 10.00 Fair CLR 51.8 33.8 50% 30.57 0.0
12 01:55 W 12 10.00 Fair CLR 53.6 33.8 47% 30.56 0.0
12 01:35 W 12 10.00 Fair CLR 53.6 33.8 47% 30.56 0.0
12 01:15 W 12 G 21 10.00 Fair CLR 53.6 33.8 47% 30.56 0.0
12 00:55 W 12 10.00 Fair CLR 53.6 33.8 47% 30.57 0.0
12 00:35 W 9 10.00 Fair CLR 53.6 33.8 47% 30.57 0.0
12 00:15 W 10 10.00 Fair CLR 53.6 35.6 51% 30.56 0.0
11 23:55 W 10 10.00 Fair CLR 53.6 35.6 51% 30.57 0.0
11 23:35 W 9 10.00 Fair CLR 53.6 33.8 47% 30.57 0.0
11 23:15 W 8 10.00 Fair CLR 53.6 35.6 51% 30.58 0.0
11 22:55 W 6 10.00 Fair CLR 53.6 35.6 51% 30.58 0.0
11 22:35 Calm 10.00 Fair CLR 53.6 35.6 51% 30.58 0.0
11 22:15 Calm 10.00 Fair CLR 51.8 35.6 54% 30.58 0.0
11 21:55 E 6 10.00 Fair CLR 51.8 35.6 54% 30.57 0.0
11 21:35 E 6 10.00 Fair CLR 51.8 35.6 54% 30.57 0.0
11 21:15 E 7 10.00 Partly Cloudy SCT110 51.8 37.4 58% 30.56 0.0
11 20:55 E 7 10.00 Overcast OVC110 53.6 41 63% 30.56 0.0
11 20:35 E 3 10.00 Mostly Cloudy BKN110 55.4 37.4 51% 30.55 0.0
11 20:15 Calm 10.00 Partly Cloudy SCT120 57.2 37.4 48% 30.54 0.0
11 19:55 N 9 10.00 Partly Cloudy SCT120 57.2 37.4 48% 30.55 0.0
11 19:35 N 8 G 17 10.00 Partly Cloudy SCT110 59 37.4 45% 30.55 0.0
11 19:15 N 6 10.00 Mostly Cloudy SCT070 BKN110 60.8 35.6 39% 30.54 0.0
11 18:55 Calm 10.00 Mostly Cloudy SCT070 BKN110 60.8 35.6 39% 30.53 0.0
11 18:35 W 7 10.00 Partly Cloudy SCT110 62.6 35.6 37% 30.52 0.0
11 18:15 W 7 10.00 Partly Cloudy SCT070 SCT090 SCT110 62.6 33.8 34% 30.52 0.0
11 17:55 W 9 10.00 Mostly Cloudy SCT055 SCT080 BKN100 62.6 35.6 37% 30.51 0.0
11 17:35 SW 12 G 20 10.00 Partly Cloudy SCT075 62.6 35.6 37% 30.51 0.0
11 17:15 SW 9 10.00 Mostly Cloudy SCT060 BKN075 BKN110 64.4 35.6 34% 30.52 0.0
11 16:55 W 6 10.00 Partly Cloudy SCT075 SCT085 SCT110 62.6 37.4 39% 30.53 0.0
11 16:35 W 5 10.00 Partly Cloudy SCT060 SCT070 64.4 39.2 40% 30.53 0.0
11 16:15 W 8 10.00 Mostly Cloudy BKN060 BKN070 BKN090 62.6 41 45% 30.54 0.0
11 15:55 Calm 10.00 Partly Cloudy SCT070 SCT100 59 41 51% 30.55 0.0
11 15:35 Calm 10.00 Partly Cloudy SCT070 SCT095 SCT110 59 41 51% 30.54 0.0
11 15:15 SE 5 10.00 Mostly Cloudy BKN070 BKN080 BKN090 59 42.8 55% 30.55 0.0
11 14:55 SE 7 7.00 Overcast BKN065 OVC090 57.2 46.4 67% 30.55 0.0
11 14:35 E 7 10.00 Overcast SCT050 BKN065 OVC095 60.8 41 48% 30.54 0.0
11 14:15 E 5 10.00 Mostly Cloudy BKN055 BKN065 62.6 42.8 49% 30.55 0.0
11 13:55 Calm 10.00 Overcast BKN050 OVC065 62.6 41 45% 30.55 0.0
11 13:35 Calm 10.00 Mostly Cloudy BKN050 BKN065 BKN080 62.6 37.4 39% 30.55 0.0
11 13:15 Calm 10.00 Partly Cloudy SCT050 SCT065 62.6 37.4 39% 30.56 0.0
11 12:55 Calm 10.00 Partly Cloudy SCT047 SCT050 SCT110 62.6 37.4 39% 30.56 0.0
11 12:35 Calm 10.00 Partly Cloudy SCT047 SCT060 59 37.4 45% 30.57 0.0
11 12:15 Calm 10.00 Partly Cloudy SCT040 SCT048 SCT090 60.8 41 48% 30.57 0.0
11 11:55 NE 3 10.00 Overcast BKN040 OVC047 59 37.4 45% 30.58 0.0
11 11:35 Calm 10.00 Overcast SCT038 BKN049 OVC070 60.8 37.4 42% 30.57 0.0
11 11:15 Calm 10.00 Mostly Cloudy SCT049 BKN065 BKN080 60.8 39.2 45% 30.57 0.0
11 10:55 E 3 10.00 Mostly Cloudy SCT045 SCT050 BKN080 62.6 41 45% 30.57 0.0
11 10:35 E 6 10.00 Partly Cloudy SCT043 62.6 41 45% 30.58 0.0
11 10:15 E 3 10.00 Partly Cloudy SCT049 59 37.4 45% 30.58 0.0
11 09:55 Calm 10.00 Fair CLR 59 37.4 45% 30.58 0.0
11 09:35 Calm 10.00 Fair CLR 59 28.4 31% 30.58 0.0
11 09:15 Calm 10.00 Fair CLR 57.2 30.2 36% 30.57 0.0
11 08:55 Calm 10.00 Fair CLR 57.2 39.2 51% 30.57 0.0
11 08:35 Calm 10.00 Fair CLR 55.4 39.2 55% 30.57 0.0
11 08:15 N 3 10.00 Fair CLR 51.8 37.4 58% 30.56 0.0
11 07:55 NW 5 10.00 Fair CLR 50 35.6 58% 49 30.56 0.0
11 07:35 N 5 10.00 Fair CLR 50 35.6 58% 49 30.55 0.0
11 07:15 NW 6 10.00 Fair CLR 44.6 37.4 76% 42 30.54 0.0
11 06:55 N 6 10.00 Fair CLR 46.4 35.6 66% 44 30.54 0.0
11 06:35 NW 5 10.00 Fair CLR 46.4 35.6 66% 45 30.53 0.0
11 06:15 NW 5 10.00 Fair CLR 46.4 35.6 66% 45 30.53 0.0
11 05:55 NW 6 10.00 Fair CLR 46.4 35.6 66% 44 30.53 0.0
11 05:35 NW 7 10.00 Fair CLR 46.4 35.6 66% 43 30.53 0.0
11 05:15 NW 6 10.00 Fair CLR 46.4 35.6 66% 44 30.52 0.0
11 04:55 W 5 10.00 Fair CLR 46.4 35.6 66% 45 30.52 0.0
11 04:35 W 3 10.00 Fair CLR 46.4 35.6 66% 30.52 0.0
11 04:15 NW 6 10.00 Fair CLR 46.4 35.6 66% 44 30.52 0.0
11 03:55 N 6 10.00 Fair CLR 46.4 35.6 66% 44 30.52 0.0
11 03:35 Calm 10.00 Fair CLR 46.4 35.6 66% 30.53 0.0
11 03:15 NW 3 10.00 Fair CLR 42.8 39.2 87% 30.53 0.0
11 02:55 NW 6 10.00 Partly Cloudy SCT095 42.8 41 93% 40 30.53 0.0
11 02:35 NW 8 10.00 Mostly Cloudy SCT080 BKN095 42.8 39.2 87% 39 30.52 0.0
Date Time (mdt) Wind (mph) Vis. (mi.) Weather Sky Cond. Air Dwpt Max. Min. Relative Humidity Wind Chill (°F) Heat Index (°F) altimeter (in) sea level (mb) 1 hr 3 hr 6 hr
6 hour
Temperature (ºF) Pressure Precipitation (in)